sat.trackr.live / text

‹ back to catalog

STARLINK-5971

NORAD 56917 · 2023-083AT

PAYLOAD ACTIVE UNKNOWN

§ Identity

Operator
Country
US
Launch date
2023-06-12
Launch site
AFETR
Launch vehicle
Mass (kg)
RCS (m²)

Purposes: comms

External: N2YO · Heavens-Above · Gunter

§ Orbital elements

Epoch: 2026-09-19T03:41:15.143136Z

Period
94.27 min
Inclination
43.0028°
Eccentricity
0.0001179
Mean motion
15.27575589 rev/d
Perigee alt
482.3 km
Apogee alt
483.9 km
Semi-major
6,861.2 km
B*
2.1494e-5
RAAN
58.2984°
Arg perigee
292.5048°
Mean anomaly
67.5679°
Rev number
18,138

§ Raw data

STARLINK-59711 56917U 23083AT  26262.15364749  .00000329  00000+0  21494-4 0  99982 56917  43.0028  58.2984 0001179 292.5048  67.5679 15.27575589181386

JSON: /api/v1/satellites/56917 · /tle

For live sub-satellite position, see the globe view (requires WebGL).

§ Visibility from observer

Set your observer location to see the next 7 days of passes ≥ 10°. The values pass through the URL so the page stays shareable.

No JS? Fill the form by hand. The geolocation button needs JavaScript.